Weather History for 60230 - September, 2012

Change the Weather History Date:

Thursday, September 27, 2012

  Actual Average Record
Temperature  
Mean Temperature 72 °F -  
Max Temperature 81 °F 82 °F - ()
Min Temperature 62 °F 59 °F - ()
Cooling Degree Days 6    
Growing Degree Days 22 (Base 50)    
Moisture  
Dew Point 63 °F    
Average Humidity 81    
Maximum Humidity 100    
Minimum Humidity 51    
Precipitation  
Precipitation 0.39 in 0.03 in - ()
Sea Level Pressure  
Sea Level Pressure 29.90 in    
Wind  
Wind Speed 5 mph ()    
Max Wind Speed 24 mph    
Max Gust Speed -    
Visibility 5.9 miles    
Events Rain    
T = Trace of Precipitation, MM = Missing Value Source: Averaged Metar Reports

Daily Weather History Graph

Daily Weather History Graph

Search for Another Location

Airport or City:

Trip Planner

Search our weather history database for the weather conditions in past years. The results will help you decide how hot, cold, wet, or windy it might be!

Date:

Astronomy

Sep. 27, 2012 Rise Set
Actual Time 7:23 AM WEST 7:21 PM WEST
Civil Twilight 6:59 AM WEST 7:46 PM WEST
Nautical Twilight 6:31 AM WEST 8:14 PM WEST
Astronomical Twilight 6:02 AM WEST 8:42 PM WEST
Moon 5:40 PM WEST (9/27) 4:46 AM WEST (9/27)
Length of Visible Light 12h 46m
Length of Day
11h 58m
Waxing Gibbous, 93% of the Moon is Illuminated
Sep 27
Waxing Gibbous
Sep 30
Full
Oct 8
Last Quarter
Oct 15
New
Oct 22
First Quarter

Hourly Weather History & Observations

Time (WEST) Temp. Heat Index Dew Point Humidity Pressure Visibility Wind Dir Wind Speed Gust Speed Precip Events Conditions
12:00 AM 71.6 °F - 60.8 °F 69% 29.92 in 6.2 mi West 3.5 mph - N/A   Scattered Clouds
12:30 AM 71.6 °F - 60.8 °F 69% 29.89 in 6.2 mi Calm Calm - N/A   Scattered Clouds
1:00 AM 70 °F - 61 °F 65% 29.84 in 6 mi Calm Calm - -   Partly Cloudy
1:00 AM 69.8 °F - 60.8 °F 73% 29.89 in 6.2 mi Calm Calm - N/A   Scattered Clouds
4:00 AM 69 °F - 61 °F 69% 29.79 in 6 mi Calm Calm - -   Partly Cloudy
5:30 AM 66.2 °F - 60.8 °F 83% 29.83 in 6.2 mi Calm Calm - N/A   Partly Cloudy
6:00 AM 66.2 °F - 60.8 °F 83% 29.83 in 6.2 mi Calm Calm - N/A   Partly Cloudy
6:30 AM 66.2 °F - 60.8 °F 83% 29.86 in 6.2 mi Calm Calm - N/A   Partly Cloudy
7:00 AM 66 °F - 61 °F 79% 29.82 in 6 mi Calm Calm - -   Partly Cloudy
7:00 AM 66.2 °F - 60.8 °F 83% 29.86 in 6.2 mi Calm Calm - N/A   Scattered Clouds
7:30 AM 66.2 °F - 60.8 °F 83% 29.86 in 6.2 mi Calm Calm - N/A   Mostly Cloudy
8:00 AM 68.0 °F - 64.4 °F 88% 29.89 in 5.6 mi Variable 2.3 mph - N/A Rain Light Rain
8:30 AM 66.2 °F - 64.4 °F 94% 29.92 in 3.1 mi South 1.2 mph - N/A Rain Light Rain Showers
9:00 AM 66.2 °F - 64.4 °F 94% 29.95 in 3.1 mi SW 6.9 mph - N/A Rain Light Rain Showers
9:30 AM 66.2 °F - 64.4 °F 94% 29.95 in 5.0 mi South 8.1 mph - N/A Rain Light Rain Showers
10:00 AM 67 °F - 65 °F 92% 29.86 in 5 mi SSE 13.8 mph - - Rain Light Rain
10:30 AM 68.0 °F - 66.2 °F 94% 29.92 in 5.0 mi SSE 13.8 mph - N/A Rain Light Rain
11:00 AM 71.6 °F - 66.2 °F 83% 29.86 in - South 5.8 mph - N/A Rain Light Rain
11:30 AM 73.4 °F - 64.4 °F 73% 29.92 in 5.0 mi South 5.8 mph - N/A   Mostly Cloudy
12:00 PM 77.0 °F - 64.4 °F 65% 29.89 in 6.2 mi Variable 2.3 mph - N/A   Scattered Clouds
12:30 PM 78.8 °F - 62.6 °F 57% 29.89 in 6.2 mi West 5.8 mph - N/A   Scattered Clouds
12:45 PM 80 °F - 65 °F 51% 29.80 in 6 mi West 10.4 mph - -   Partly Cloudy
1:00 PM 80.6 °F 82.3 °F 64.4 °F 58% 29.89 in 6.2 mi West 10.4 mph - N/A   Scattered Clouds
1:30 PM 80.6 °F 82.3 °F 64.4 °F 58% 29.86 in 6.2 mi West 19.6 mph - N/A   Scattered Clouds
2:00 PM 75.2 °F - 66.2 °F 73% 29.89 in 6.2 mi West 24.2 mph - N/A   Scattered Clouds
2:30 PM 68.0 °F - 62.6 °F 83% 29.89 in 6.2 mi West 23.0 mph - N/A   Scattered Clouds
3:00 PM 66.2 °F - 62.6 °F 88% 29.92 in 6.2 mi SW 18.4 mph - N/A   Scattered Clouds
3:30 PM 66.2 °F - 62.6 °F 88% 29.92 in 6.2 mi SSW 15.0 mph - N/A   Scattered Clouds
4:00 PM 68 °F - 62 °F 76% 29.85 in 6 mi South 10.4 mph - -   Partly Cloudy
4:00 PM 68.0 °F - 62.6 °F 83% 29.89 in 6.2 mi South 9.2 mph - N/A   Scattered Clouds
4:30 PM 69.8 °F - 62.6 °F 78% 29.89 in 6.2 mi SSE 9.2 mph - N/A   Scattered Clouds
5:00 PM 69.8 °F - 60.8 °F 73% 29.89 in 6.2 mi SSE 5.8 mph - N/A   Scattered Clouds
5:30 PM 73.4 °F - 62.6 °F 69% 29.89 in 6.2 mi Variable 1.2 mph - N/A   Scattered Clouds
6:00 PM 75.2 °F - 64.4 °F 69% 29.89 in 6.2 mi WNW 8.1 mph - N/A   Scattered Clouds
6:30 PM 73.4 °F - 62.6 °F 69% 29.89 in 6.2 mi WNW 12.7 mph - N/A   Scattered Clouds
7:00 PM 69 °F - 65 °F 82% 29.85 in 6 mi NW 13.8 mph - -   Partly Cloudy
7:00 PM 69.8 °F - 64.4 °F 83% 29.92 in 6.2 mi WNW 12.7 mph - N/A   Scattered Clouds
7:30 PM 68.0 °F - 64.4 °F 88% 29.92 in 6.2 mi WNW 15.0 mph - N/A   Scattered Clouds
8:00 PM 68.0 °F - 64.4 °F 88% 29.95 in 6.2 mi West 8.1 mph - N/A   Mostly Cloudy
8:30 PM 66.2 °F - 64.4 °F 94% 29.95 in 3.7 mi WSW 9.2 mph - N/A Rain Light Rain
9:00 PM 64.4 °F - 64.4 °F 100% 29.95 in 6.2 mi WNW 8.1 mph - N/A   Mostly Cloudy
9:30 PM 64.4 °F - 62.6 °F 94% 29.95 in 6.2 mi West 6.9 mph - N/A   Mostly Cloudy
10:00 PM 64 °F - 64 °F 98% 29.93 in 6 mi WSW 5.8 mph - -   Partly Cloudy
10:00 PM 64.4 °F - 64.4 °F 100% 29.95 in 6.2 mi WSW 5.8 mph - N/A   Mostly Cloudy
10:30 PM 62.6 °F - 62.6 °F 100% 29.98 in 6.2 mi WSW 8.1 mph - N/A   Mostly Cloudy
11:00 PM 62.6 °F - 62.6 °F 100% 29.98 in 6.2 mi West 10.4 mph - N/A   Mostly Cloudy
11:01 PM 62.6 °F - 62.6 °F 100% 29.98 in 6.2 mi West 10.4 mph - N/A   Mostly Cloudy